Content
SEND FEEDBACK

Daily
Averages
Monthly
Summary
Germany

LUBECK, GERMANY


Home > Europe > Germany
Elevation: 56 feet     Latitude: 54 00N     Longitude: 011 12E

WEATHER
 
SELECT A DAY
Number of Records: 59,481;   Date Range: 7/3/96 - 8/26/14
 
SHARE

PRINT THIS DATA

[ ← Previous Day ]
WEATHER ALMANAC - SEPTEMBER 8, 2013
[ Next Day → ]
[ °C ]   °F
Weather ElementAverageHighLow
Temperature64.6 °F73.4 °F (1:50 pm)57.2 °F (9:50 pm)
Dewpoint54.3 °F60.8 °F (3:50 pm)50 °F (6:50 am)
Humidity70.9 %94 % (9:50 pm)50 % (1:50 pm)
Barometer30.04 in30.09 in (8:20 pm)30.01 in (10:20 am)
Wind Speed7.6 mph12.7 mph (6:50 pm)
Weather ElementAverage
Visibility6.2 mi
Wind DirectionS (179.3 °)

Weather ElementTotal
Precipitation---
Cooling Degree Days0.3 (Base 65)
Growing Degree Days15.3 (Base 50)
Averaged from 29 records on September 8, 2013
WEATHER CONDITIONS BREAKOUT
WIND DIRECTION BREAKOUT
WEATHER BY HOUR - SEPTEMBER 8, 2013
[ °C ]   °F
Local TimeTemperatureDewpointHumidityBarometerVisibilityWind DirectionWind SpeedGust SpeedPrecipitationEventsConditions
6:50 AM59.0 °F50.0 °F72 %30.04 inEast (100°)6.9 mphClear
7:20 AM59.0 °F50.0 °F72 %30.04 inEast (100°)6.9 mphClear
7:50 AM60.8 °F50.0 °F68 %30.04 inESE (110°)8.1 mphClear
8:20 AM62.6 °F50.0 °F63 %30.04 inESE (110°)8.1 mphClear
8:50 AM62.6 °F50.0 °F63 %30.04 inESE (120°)8.1 mphClear
9:20 AM62.6 °F50.0 °F63 %30.04 inESE (120°)8.1 mphClear
9:50 AM64.4 °F50.0 °F59 %30.04 inESE (120°)9.2 mphClear
10:20 AM66.2 °F51.8 °F60 %30.01 inESE (120°)9.2 mphClear
10:50 AM68.0 °F51.8 °F56 %30.04 inSE (130°)8.1 mphClear
11:20 AM69.8 °F51.8 °F53 %30.01 inSE (130°)11.5 mphClear
11:50 AM69.8 °F53.6 °F56 %30.01 inSE (140°)8.1 mphClear
12:50 PM71.6 °F53.6 °F53 %30.01 inSSE (150°)8.1 mphClear
1:20 PM71.6 °F53.6 °F53 %30.01 inSSE (150°)10.4 mphClear
1:50 PM73.4 °F53.6 °F50 %30.01 inSSE (160°)10.4 mphClear
2:20 PM71.6 °F53.6 °F53 %30.01 inSouth (180°)9.2 mphClear
2:50 PM71.6 °F53.6 °F53 %30.01 in6.2 miSouth (180°)6.9 mphRainLight Rain
3:20 PM66.2 °F59.0 °F78 %30.01 in6.2 miSSW (200°)3.5 mphRainLight Rain
3:50 PM66.2 °F60.8 °F83 %30.04 in6.2 miSouth (180°)3.5 mphRainLight Rain
4:20 PM66.2 °F60.8 °F83 %30.04 in6.2 miSouth (180°)4.6 mphMostly Cloudy
4:50 PM66.2 °F59.0 °F78 %30.04 in6.2 miSouth (190°)3.5 mphLight Drizzle
5:50 PM64.4 °F60.8 °F88 %30.04 in6.2 miSouth (190°)4.6 mphLight Drizzle
6:20 PM62.6 °F59.0 °F88 %30.04 in6.2 miWest (260°)10.4 mphMostly Cloudy
6:50 PM60.8 °F57.2 °F88 %30.06 in6.2 miWest (260°)12.7 mphMostly Cloudy
7:20 PM60.8 °F55.4 °F82 %30.06 in6.2 miWest (270°)8.1 mphMostly Cloudy
7:50 PM60.8 °F55.4 °F82 %30.06 in6.2 miWest (260°)9.2 mphMostly Cloudy
8:20 PM59.0 °F55.4 °F88 %30.09 in6.2 miWest (270°)8.1 mphMostly Cloudy
8:50 PM59.0 °F55.4 °F88 %30.09 in6.2 miWest (270°)5.8 mphMostly Cloudy
9:20 PM59.0 °F55.4 °F88 %30.09 in6.2 miWest (270°)4.6 mphMostly Cloudy
9:50 PM57.2 °F55.4 °F94 %30.09 in6.2 miWest (280°)3.5 mphMostly Cloudy
Hourly data recorded from EDHL, located miles away from Lubeck, Germany







STORIES FROM OUR PARTNERS